[[{"header":{"parameterUnit":"m.s-1","parameterCategory":2,"la1":30.2991,"la2":30.254,"lo1":-89.0895,"lo2":-89.0444,"dy":0.0017,"dx":0.0017,"nx":28,"ny":28,"refTime":"2024-12-17T09:00:00:Z","depth":"0","parameterNumber":2,"parameterNumberName":"U-component_of_CURRENTS"},"data":[0,0,0,0,0,0,0,0,0,0,0,0,0,0,0,0,0,0,0,0,0,0,0,0,0,0,0,0,0,0,0,0,0,0,0,0,0,0,0,0,0,0,0,0,0,0,0,0,0,0,0,0,0,0,0,0,0,0,-0.1979,-0.198,0,-0.2069,-0.2069,-0.207,-0.2085,-0.2085,-0.2084,-0.2084,-0.2069,-0.2069,-0.2069,0,0,0,0,0,0,0,0,0,0,0,0,0,-0.1863,-0.1864,-0.1979,-0.198,-0.1982,-0.2068,-0.2069,-0.207,-0.2085,-0.2085,-0.2084,-0.2084,-0.2069,-0.2069,-0.2069,0,0,0,0,0,0,0,0,0,0,0,0,0,-0.1925,-0.1865,-0.1978,-0.2002,-0.2006,-0.2068,-0.2069,-0.207,-0.2085,-0.2085,-0.2084,-0.2084,-0.2069,-0.2069,-0.2069,-0.2082,0,0,-0.2069,-0.2069,0,0,0,0,0,0,0,0,-0.1922,-0.1929,-0.1997,-0.2001,-0.2005,-0.2068,-0.2023,-0.207,-0.2086,-0.2051,-0.2084,-0.2083,-0.2062,-0.2062,-0.2077,-0.2081,-0.208,-0.2069,-0.2069,-0.2069,-0.2069,0,0,0,0,0,0,0,-0.1917,-0.1926,-0.201,-0.1999,-0.2004,-0.2024,-0.2031,-0.2033,-0.2054,-0.2054,-0.2056,-0.2072,-0.2062,-0.2077,-0.2076,-0.208,-0.2069,-0.2069,-0.2069,-0.2069,-0.2101,-0.2101,0,0,0,0,0,0,-0.1912,-0.1921,-0.2008,-0.2014,-0.1965,-0.2026,-0.2034,-0.2045,-0.2057,-0.206,-0.2073,-0.2073,-0.2077,-0.2076,-0.2076,-0.2097,-0.2069,-0.2069,-0.2069,-0.21,-0.2101,-0.2102,0,0,0,0,0,0,-0.1909,-0.1919,-0.2004,-0.1973,-0.1985,-0.2029,-0.2041,-0.2048,-0.2065,-0.2073,-0.2073,-0.2084,-0.2077,-0.2076,-0.2086,-0.2096,-0.2069,-0.2069,-0.2099,-0.21,-0.2101,-0.2136,0,0,0,0,0,0,-0.1906,-0.1917,-0.1926,-0.1972,-0.1987,-0.2044,-0.2043,-0.205,-0.2077,-0.2078,-0.2082,-0.208,-0.2076,-0.2086,-0.2086,-0.2096,-0.2069,-0.2098,-0.2099,-0.2101,-0.2134,-0.2138,-0.2142,0,0,0,0,0,-0.1901,-0.1919,-0.1926,-0.1937,-0.1997,-0.2045,-0.2054,-0.2081,-0.2078,-0.2091,-0.2096,-0.208,-0.2096,-0.2087,-0.2087,-0.2096,-0.2097,-0.2099,-0.2101,-0.2132,-0.2137,-0.2142,0,0,0,0,0,0,-0.189,-0.1925,-0.1932,-0.1964,-0.2002,-0.2049,-0.207,-0.2084,-0.21,-0.2098,-0.2093,-0.2093,-0.211,-0.2098,-0.2089,-0.2111,-0.2093,-0.2095,-0.2117,-0.2122,-0.2126,-0.2146,-0.2069,0,0,0,0,0,-0.1888,-0.1901,-0.1945,-0.1973,-0.1989,-0.2028,-0.2051,-0.207,-0.2093,-0.2101,-0.2103,-0.2106,-0.2119,-0.2115,-0.2125,-0.2133,-0.2134,-0.2138,-0.2143,-0.2146,-0.2163,-0.2172,-0.2178,-0.2108,-0.2108,-0.2108,0,0,-0.1897,-0.1916,-0.1928,-0.197,-0.1999,-0.2037,-0.2039,-0.2079,-0.2109,-0.2095,-0.2124,-0.2125,-0.2127,-0.2145,-0.2149,-0.2133,-0.2167,-0.2149,-0.2152,-0.2167,-0.2174,-0.2181,-0.2187,-0.2109,-0.2109,-0.2109,0,0,-0.1923,-0.1933,-0.1953,-0.1981,-0.2024,-0.2048,-0.2058,-0.2102,-0.2116,-0.2147,-0.2148,-0.2163,-0.2167,-0.2182,-0.2186,-0.222,-0.2197,-0.2207,-0.2235,-0.2243,-0.2249,-0.2254,-0.2263,-0.2269,-0.2199,-0.2199,-0.2199,0,-0.1939,-0.1963,-0.1972,-0.2002,-0.2029,-0.2052,-0.2089,-0.2116,-0.2156,-0.217,-0.2158,-0.2195,-0.2194,-0.2228,-0.224,-0.2231,-0.2225,-0.2214,-0.2248,-0.2253,-0.2258,-0.2267,-0.2273,-0.2201,-0.2201,-0.2201,-0.22,0,-0.1982,-0.2001,-0.2019,-0.2055,-0.2083,-0.212,-0.2154,-0.2179,-0.219,-0.2213,-0.2246,-0.2253,-0.2272,-0.2271,-0.2266,-0.2299,-0.228,-0.2259,-0.2235,-0.2267,-0.2274,-0.228,-0.2204,-0.2203,-0.2203,-0.2202,0,0,-0.2028,-0.2044,-0.2052,-0.2066,-0.211,-0.2141,-0.2184,-0.2231,-0.2262,-0.2282,-0.2319,-0.2345,-0.2339,-0.2347,-0.2338,-0.2345,-0.2373,-0.2312,-0.2311,-0.2322,-0.2385,-0.2416,-0.2425,-0.2344,-0.2346,-0.2347,-0.2376,0,-0.2067,-0.2104,-0.2108,-0.2159,-0.2184,-0.2205,-0.2247,-0.2287,-0.231,-0.2347,-0.2359,-0.2388,-0.2369,-0.2373,-0.2381,-0.2378,-0.2389,-0.2368,-0.2353,-0.2353,-0.2377,-0.2434,-0.2401,-0.2428,-0.2381,-0.2382,-0.2382,0,-0.212,-0.2129,-0.2167,-0.2196,-0.2212,-0.2244,-0.23,-0.234,-0.2391,-0.2406,-0.243,-0.2435,-0.2464,-0.2435,-0.2453,-0.2431,-0.242,-0.2413,-0.2413,-0.2439,-0.2396,-0.2388,-0.244,-0.2281,-0.2391,-0.239,-0.239,0,-0.2145,-0.218,-0.2198,-0.2212,-0.2251,-0.2273,-0.2302,-0.2356,-0.2392,-0.244,-0.2463,-0.2489,-0.2501,-0.2497,-0.2485,-0.2463,-0.2498,-0.2462,-0.2486,-0.2487,-0.2459,-0.2457,-0.236,-0.2485,-0.2485,-0.2485,-0.2485,0,-0.2189,-0.2211,-0.2206,-0.2222,-0.2259,-0.2285,-0.2337,-0.2372,-0.2424,-0.2472,-0.2487,-0.2524,-0.2514,-0.2527,-0.2509,-0.2526,-0.2515,-0.2519,-0.2508,-0.2471,-0.2469,-0.233,-0.2204,-0.2486,-0.2486,-0.2486,-0.2485,0,-0.2227,-0.2222,-0.2245,-0.2263,-0.227,-0.23,-0.2347,-0.2391,-0.2434,-0.2496,-0.2511,-0.2551,-0.2573,-0.2568,-0.2567,-0.2564,-0.2501,-0.2572,-0.2537,-0.2523,-0.2415,-0.2292,-0.2299,-0.2241,-0.2618,-0.262,-0.262,0,-0.2254,-0.2262,-0.2265,-0.2275,-0.2282,-0.2317,-0.2351,-0.2393,-0.2436,-0.2516,-0.2549,-0.2588,-0.262,-0.2645,-0.2661,-0.2666,-0.2516,-0.2615,-0.2588,-0.2431,-0.2284,-0.2287,-0.2236,-0.2555,-0.2555,-0.2556,-0.2556,0,-0.23,-0.2289,-0.2296,-0.2303,-0.2323,-0.235,-0.2392,-0.2423,-0.2486,-0.2533,-0.2595,-0.2625,-0.2685,-0.2708,-0.2726,-0.2692,-0.2498,-0.2624,-0.2458,-0.2241,-0.224,-0.217,-0.2506,-0.2558,-0.2558,-0.2558,-0.2558,-0.2558,-0.2331,-0.2333,-0.2325,-0.2334,-0.2353,-0.2377,-0.2383,-0.2444,-0.2496,-0.2564,-0.2611,-0.2649,-0.2692,-0.2741,-0.2698,-0.256,-0.2552,-0.2439,-0.2309,-0.2337,-0.2265,-0.2628,-0.267,-0.267,-0.2671,-0.2671,-0.2671,0,-0.2377,-0.2358,-0.2361,-0.2354,-0.236,-0.2368,-0.2405,-0.2407,-0.2452,-0.2542,-0.2593,-0.2648,-0.2616,-0.2577,-0.2478,-0.2273,-0.2255,-0.2085,-0.2016,-0.1983,-0.2292,-0.227,-0.2231,-0.2231,-0.2231,-0.2231,-0.2231,-0.2231,-0.2396,-0.2394,-0.2373,-0.2357,-0.2345,-0.2322,-0.2322,-0.2342,-0.2381,-0.2449,-0.2502,-0.2542,-0.2307,-0.218,-0.1895,-0.183,-0.1646,-0.1642,-0.1559,-0.1657,-0.1679,-0.1699,-0.1651,-0.1483,-0.1482,-0.1328,-0.1325,-0.1323]},{"header":{"parameterUnit":"m.s-1","parameterCategory":2,"la1":30.2991,"la2":30.254,"lo1":-89.0895,"lo2":-89.0444,"dy":0.0017,"dx":0.0017,"nx":28,"ny":28,"refTime":"2024-12-17T09:00:00:Z","depth":"0","parameterNumber":3,"parameterNumberName":"V-component_of_CURRENTS"},"data":[0,0,0,0,0,0,0,0,0,0,0,0,0,0,0,0,0,0,0,0,0,0,0,0,0,0,0,0,0,0,0,0,0,0,0,0,0,0,0,0,0,0,0,0,0,0,0,0,0,0,0,0,0,0,0,0,0,0,-0.1546,-0.1545,0,-0.1441,-0.1439,-0.1438,-0.1382,-0.1382,-0.1382,-0.1382,-0.1173,-0.1167,-0.1162,0,0,0,0,0,0,0,0,0,0,0,0,0,-0.1632,-0.1631,-0.1546,-0.1545,-0.1544,-0.1441,-0.1439,-0.1438,-0.1382,-0.1382,-0.1382,-0.1382,-0.1175,-0.1168,-0.1162,0,0,0,0,0,0,0,0,0,0,0,0,0,-0.1567,-0.1631,-0.1546,-0.1504,-0.1499,-0.1441,-0.1439,-0.1437,-0.1382,-0.1382,-0.1382,-0.1382,-0.1177,-0.1169,-0.1161,-0.1111,0,0,-0.1135,-0.1132,0,0,0,0,0,0,0,0,-0.1571,-0.1564,-0.1511,-0.1507,-0.1501,-0.1425,-0.1393,-0.1323,-0.1382,-0.1425,-0.1382,-0.1382,-0.1248,-0.1234,-0.1215,-0.1101,-0.1092,-0.1135,-0.113,-0.1126,-0.1124,0,0,0,0,0,0,0,-0.1576,-0.1568,-0.1503,-0.151,-0.1504,-0.1467,-0.1459,-0.138,-0.1336,-0.1422,-0.1417,-0.1407,-0.1245,-0.1223,-0.1209,-0.1089,-0.1135,-0.1127,-0.1122,-0.1119,-0.0907,-0.0906,0,0,0,0,0,0,-0.1594,-0.1572,-0.1507,-0.15,-0.1538,-0.1466,-0.1456,-0.1449,-0.1339,-0.1323,-0.1407,-0.1405,-0.1237,-0.1219,-0.1201,-0.1124,-0.1126,-0.1118,-0.1114,-0.0908,-0.0907,-0.0906,0,0,0,0,0,0,-0.1596,-0.1589,-0.1511,-0.1534,-0.1522,-0.1465,-0.1457,-0.1447,-0.1423,-0.1329,-0.1311,-0.1394,-0.1236,-0.1213,-0.113,-0.1116,-0.1115,-0.1107,-0.0909,-0.0908,-0.0907,-0.0977,0,0,0,0,0,0,-0.1599,-0.1591,-0.1593,-0.1536,-0.1522,-0.1478,-0.1457,-0.1445,-0.1417,-0.1413,-0.1312,-0.1293,-0.1234,-0.1143,-0.1122,-0.1105,-0.1101,-0.0909,-0.0908,-0.0907,-0.0976,-0.0979,-0.0981,0,0,0,0,0,-0.1603,-0.1604,-0.1594,-0.1586,-0.1526,-0.1478,-0.1467,-0.1425,-0.1417,-0.1405,-0.1338,-0.1296,-0.1121,-0.1136,-0.1111,-0.1091,-0.091,-0.0908,-0.0907,-0.0974,-0.0978,-0.0981,0,0,0,0,0,0,-0.1642,-0.1597,-0.1584,-0.1573,-0.1531,-0.1469,-0.1456,-0.1429,-0.1369,-0.1365,-0.1281,-0.1256,-0.1181,-0.1125,-0.1144,-0.1027,-0.101,-0.1004,-0.107,-0.1072,-0.1075,-0.1095,-0.1094,0,0,0,0,0,-0.1654,-0.1645,-0.1592,-0.1584,-0.1567,-0.1514,-0.1491,-0.1462,-0.1403,-0.1378,-0.1307,-0.123,-0.1155,-0.1108,-0.1035,-0.0964,-0.0937,-0.0937,-0.094,-0.0943,-0.0942,-0.0887,-0.0885,-0.0901,-0.0901,-0.0901,0,0,-0.1666,-0.1642,-0.1637,-0.1593,-0.156,-0.1527,-0.1499,-0.1468,-0.1437,-0.1361,-0.1298,-0.1235,-0.1139,-0.1067,-0.1028,-0.1017,-0.093,-0.0941,-0.0944,-0.0941,-0.0885,-0.0884,-0.0882,-0.09,-0.09,-0.0901,0,0,-0.1682,-0.1667,-0.1661,-0.1627,-0.1582,-0.1545,-0.1539,-0.1476,-0.1447,-0.1379,-0.1322,-0.1258,-0.1136,-0.1074,-0.1024,-0.0995,-0.095,-0.0968,-0.0989,-0.0936,-0.0934,-0.0933,-0.0932,-0.093,-0.0965,-0.0965,-0.0965,0,-0.17,-0.168,-0.165,-0.1629,-0.1601,-0.1555,-0.1531,-0.1491,-0.141,-0.1381,-0.1367,-0.121,-0.114,-0.1048,-0.1043,-0.1002,-0.098,-0.0988,-0.0942,-0.0939,-0.0936,-0.0936,-0.0932,-0.0969,-0.0968,-0.0968,-0.0968,0,-0.1701,-0.1682,-0.1675,-0.1633,-0.1602,-0.1574,-0.1518,-0.1486,-0.1449,-0.1402,-0.1319,-0.1232,-0.1141,-0.1109,-0.1062,-0.1,-0.0997,-0.0959,-0.0942,-0.0939,-0.0939,-0.0934,-0.0973,-0.0972,-0.0971,-0.097,0,0,-0.174,-0.1686,-0.1682,-0.1662,-0.16,-0.1574,-0.1532,-0.1473,-0.1449,-0.1375,-0.133,-0.1217,-0.1186,-0.1128,-0.1066,-0.1019,-0.0997,-0.0985,-0.098,-0.1001,-0.0916,-0.0987,-0.0989,-0.0947,-0.0946,-0.0945,-0.0938,0,-0.1745,-0.1714,-0.1681,-0.1643,-0.1618,-0.1568,-0.1534,-0.1481,-0.143,-0.1378,-0.1298,-0.1229,-0.1186,-0.1149,-0.1095,-0.1009,-0.0981,-0.1005,-0.0899,-0.0897,-0.0973,-0.0984,-0.0946,-0.0942,-0.0933,-0.0932,-0.0931,0,-0.175,-0.1726,-0.1697,-0.1647,-0.1633,-0.1607,-0.1553,-0.1515,-0.144,-0.1402,-0.1331,-0.1268,-0.1184,-0.1154,-0.1031,-0.1046,-0.0993,-0.0939,-0.0936,-0.0971,-0.0958,-0.0931,-0.0933,-0.0671,-0.0924,-0.0924,-0.0925,0,-0.1788,-0.1736,-0.1716,-0.1695,-0.1635,-0.1619,-0.1589,-0.1525,-0.1498,-0.1421,-0.1393,-0.1287,-0.1233,-0.1139,-0.1048,-0.1027,-0.0935,-0.0888,-0.0911,-0.0917,-0.0849,-0.0852,-0.0594,-0.0815,-0.0815,-0.0815,-0.0815,0,-0.18,-0.1782,-0.1735,-0.1723,-0.1706,-0.1655,-0.1636,-0.1592,-0.1535,-0.1506,-0.1413,-0.1373,-0.1222,-0.1152,-0.1066,-0.0998,-0.0951,-0.0927,-0.0914,-0.0878,-0.0884,-0.0624,-0.045,-0.0815,-0.0815,-0.0815,-0.0815,0,-0.1837,-0.1806,-0.1782,-0.1734,-0.1724,-0.1715,-0.1674,-0.1664,-0.1602,-0.1563,-0.154,-0.1428,-0.1352,-0.1241,-0.1101,-0.1036,-0.0829,-0.0944,-0.0951,-0.094,-0.0729,-0.0563,-0.0388,-0.0298,-0.0961,-0.0963,-0.0964,0,-0.1849,-0.1843,-0.1808,-0.181,-0.1791,-0.1773,-0.177,-0.1708,-0.1691,-0.1602,-0.1589,-0.1507,-0.1468,-0.1327,-0.1201,-0.1103,-0.0875,-0.0992,-0.0943,-0.0722,-0.0523,-0.0472,-0.0404,-0.0884,-0.0885,-0.0886,-0.0886,0,-0.1874,-0.1868,-0.1854,-0.1868,-0.1868,-0.1859,-0.1841,-0.1837,-0.1768,-0.1743,-0.1704,-0.1671,-0.154,-0.1436,-0.131,-0.1193,-0.0793,-0.1004,-0.0722,-0.0408,-0.0379,-0.0287,-0.0919,-0.089,-0.089,-0.089,-0.0889,-0.0889,-0.19,-0.1905,-0.1908,-0.1925,-0.1932,-0.1946,-0.1964,-0.1952,-0.195,-0.1944,-0.1861,-0.1854,-0.1597,-0.143,-0.1284,-0.0863,-0.0849,-0.0673,-0.0488,-0.0461,-0.0362,-0.106,-0.1051,-0.1052,-0.1052,-0.1052,-0.1053,0,-0.1937,-0.1949,-0.1969,-0.1989,-0.203,-0.2012,-0.202,-0.2057,-0.2097,-0.21,-0.2107,-0.1871,-0.1601,-0.1258,-0.0699,-0.036,-0.0281,-0.0118,0.0066,0.0111,-0.0444,-0.0425,-0.0341,-0.0341,-0.0341,-0.0342,-0.0342,-0.0342,-0.1956,-0.1995,-0.201,-0.2085,-0.2107,-0.2172,-0.2193,-0.2247,-0.2268,-0.2263,-0.2171,-0.2009,-0.1195,-0.0344,0.031,0.038,0.0677,0.0653,0.0793,0.0561,0.0526,0.0493,0.0552,0.0839,0.0841,0.1264,0.127,0.1274]}],[{"header":{"parameterUnit":"m.s-1","parameterCategory":2,"la1":30.2991,"la2":30.254,"lo1":-89.0895,"lo2":-89.0444,"dy":0.0017,"dx":0.0017,"nx":28,"ny":28,"refTime":"2024-12-17T09:00:00:Z","depth":"2","parameterNumber":2,"parameterNumberName":"U-component_of_CURRENTS"},"data":[0,0,0,0,0,0,0,0,0,0,0,0,0,0,0,0,0,0,0,0,0,0,0,0,0,0,0,0,0,0,0,0,0,0,0,0,0,0,0,0,0,0,0,0,0,0,0,0,0,0,0,0,0,0,0,0,0,0,-0.1674,-0.1674,0,-0.1681,-0.1681,-0.1681,-0.1705,-0.1705,-0.1706,-0.1707,-0.1697,-0.1696,-0.1695,0,0,0,0,0,0,0,0,0,0,0,0,0,-0.1673,-0.1672,-0.1674,-0.1674,-0.1675,-0.1681,-0.1681,-0.1681,-0.1705,-0.1705,-0.1706,-0.1707,-0.1697,-0.1696,-0.1695,0,0,0,0,0,0,0,0,0,0,0,0,0,-0.1674,-0.1672,-0.1674,-0.1688,-0.169,-0.1681,-0.1681,-0.1681,-0.1704,-0.1705,-0.1706,-0.1707,-0.1698,-0.1696,-0.1695,-0.1667,0,0,-0.1691,-0.169,0,0,0,0,0,0,0,0,-0.1674,-0.1674,-0.1686,-0.1687,-0.1689,-0.1694,-0.1677,-0.1676,-0.1704,-0.1697,-0.1707,-0.1708,-0.1695,-0.1694,-0.1691,-0.1666,-0.1666,-0.1691,-0.169,-0.1689,-0.1689,0,0,0,0,0,0,0,-0.1674,-0.1674,-0.1676,-0.1686,-0.1688,-0.1691,-0.1693,-0.1677,-0.1689,-0.1698,-0.17,-0.1703,-0.1695,-0.1692,-0.1691,-0.1666,-0.1691,-0.169,-0.1689,-0.1688,-0.1665,-0.1665,0,0,0,0,0,0,-0.1675,-0.1674,-0.1675,-0.1676,-0.1686,-0.1691,-0.1692,-0.169,-0.1689,-0.1691,-0.1702,-0.1704,-0.1694,-0.1692,-0.1691,-0.1702,-0.1689,-0.1688,-0.1687,-0.1665,-0.1665,-0.1665,0,0,0,0,0,0,-0.1675,-0.1675,-0.1675,-0.1677,-0.1677,-0.169,-0.1688,-0.169,-0.1697,-0.1693,-0.1694,-0.1709,-0.1695,-0.1692,-0.1689,-0.17,-0.1688,-0.1686,-0.1665,-0.1665,-0.1665,-0.1695,0,0,0,0,0,0,-0.1675,-0.1675,-0.1672,-0.1676,-0.1677,-0.1675,-0.1687,-0.169,-0.1698,-0.1701,-0.1698,-0.1698,-0.1695,-0.1691,-0.1688,-0.1698,-0.1685,-0.1664,-0.1665,-0.1665,-0.1694,-0.1697,-0.1699,0,0,0,0,0,-0.1675,-0.166,-0.1671,-0.1672,-0.1673,-0.1675,-0.1675,-0.1687,-0.1697,-0.1698,-0.1702,-0.1699,-0.1691,-0.169,-0.1686,-0.1696,-0.1664,-0.1665,-0.1665,-0.1693,-0.1696,-0.1699,0,0,0,0,0,0,-0.1648,-0.1661,-0.1674,-0.1662,-0.1674,-0.168,-0.1676,-0.1689,-0.1691,-0.1695,-0.1695,-0.1695,-0.1695,-0.1688,-0.1686,-0.169,-0.1679,-0.1679,-0.1702,-0.1704,-0.1706,-0.171,-0.1684,0,0,0,0,0,-0.1643,-0.1642,-0.1657,-0.1649,-0.1654,-0.1668,-0.167,-0.1682,-0.1687,-0.169,-0.1693,-0.1693,-0.169,-0.1692,-0.1684,-0.1682,-0.1685,-0.1687,-0.1689,-0.1691,-0.1691,-0.1703,-0.1706,-0.1667,-0.1667,-0.1667,0,0,-0.163,-0.1637,-0.1636,-0.1644,-0.1652,-0.1662,-0.1671,-0.1676,-0.1691,-0.1686,-0.17,-0.1696,-0.169,-0.1693,-0.1693,-0.1691,-0.1708,-0.1692,-0.1694,-0.1693,-0.1704,-0.1708,-0.1711,-0.1667,-0.1667,-0.1667,0,0,-0.1603,-0.1611,-0.1606,-0.162,-0.1637,-0.1651,-0.1656,-0.1672,-0.1687,-0.1696,-0.1701,-0.1704,-0.1699,-0.1704,-0.1704,-0.171,-0.1715,-0.1711,-0.173,-0.1742,-0.1745,-0.1748,-0.1773,-0.1778,-0.1717,-0.1718,-0.1718,0,-0.1589,-0.159,-0.1603,-0.1608,-0.1626,-0.165,-0.166,-0.1673,-0.169,-0.1706,-0.1705,-0.1714,-0.1705,-0.172,-0.1725,-0.1716,-0.1729,-0.1722,-0.1746,-0.1749,-0.1752,-0.1776,-0.1781,-0.1719,-0.1719,-0.1719,-0.1719,0,-0.1566,-0.1575,-0.1572,-0.1597,-0.1614,-0.1624,-0.1657,-0.1678,-0.17,-0.1718,-0.1738,-0.1731,-0.1741,-0.174,-0.1732,-0.1752,-0.1758,-0.1744,-0.1741,-0.1758,-0.1782,-0.1787,-0.1721,-0.1721,-0.172,-0.172,0,0,-0.1523,-0.1552,-0.1557,-0.1579,-0.1616,-0.1631,-0.1663,-0.1701,-0.1733,-0.1744,-0.1781,-0.1772,-0.1776,-0.1774,-0.1772,-0.1782,-0.1811,-0.1774,-0.1774,-0.1804,-0.1853,-0.1858,-0.1863,-0.1806,-0.1807,-0.1807,-0.1869,0,-0.151,-0.152,-0.1546,-0.1577,-0.159,-0.164,-0.1674,-0.1714,-0.1747,-0.1786,-0.1793,-0.1812,-0.1788,-0.1798,-0.1803,-0.1807,-0.1823,-0.1796,-0.1828,-0.1829,-0.1835,-0.1868,-0.1566,-0.1594,-0.1873,-0.1874,-0.1875,0,-0.1489,-0.1503,-0.1521,-0.1586,-0.1601,-0.1627,-0.1705,-0.1737,-0.1794,-0.1821,-0.1844,-0.1852,-0.1868,-0.1843,-0.1864,-0.1852,-0.1852,-0.1855,-0.1857,-0.1852,-0.1842,-0.1619,-0.1593,-0.1883,-0.1882,-0.1881,-0.1881,0,-0.1456,-0.1498,-0.1516,-0.1534,-0.1598,-0.1631,-0.1675,-0.1742,-0.1786,-0.184,-0.1875,-0.1894,-0.191,-0.1911,-0.1912,-0.1892,-0.1943,-0.1915,-0.1924,-0.1925,-0.1668,-0.1645,-0.193,-0.193,-0.193,-0.193,-0.193,0,-0.1431,-0.1456,-0.1503,-0.1512,-0.1562,-0.1615,-0.1678,-0.1727,-0.1801,-0.1859,-0.1883,-0.1922,-0.1926,-0.1955,-0.1943,-0.1959,-0.1967,-0.1938,-0.1942,-0.1673,-0.1651,-0.1893,-0.1888,-0.1932,-0.1932,-0.1931,-0.1931,0,-0.1392,-0.1419,-0.1445,-0.1509,-0.154,-0.1571,-0.168,-0.1732,-0.1797,-0.1874,-0.1893,-0.1952,-0.1992,-0.201,-0.2026,-0.2005,-0.2015,-0.2017,-0.1717,-0.1686,-0.1983,-0.1979,-0.2034,-0.2035,-0.2035,-0.2036,-0.2036,0,-0.137,-0.137,-0.1431,-0.1463,-0.1495,-0.156,-0.1623,-0.1713,-0.1777,-0.1889,-0.1928,-0.1992,-0.2029,-0.207,-0.1996,-0.199,-0.206,-0.1759,-0.1665,-0.1996,-0.1994,-0.1989,-0.1984,-0.1331,-0.1326,-0.1321,-0.1318,0,-0.1326,-0.1344,-0.1368,-0.1429,-0.1489,-0.1565,-0.1657,-0.1715,-0.1831,-0.1898,-0.1988,-0.202,-0.2004,-0.184,-0.1832,-0.1785,-0.1735,-0.1676,-0.2068,-0.138,-0.1346,-0.1341,-0.1356,-0.1279,-0.1283,-0.1285,-0.1288,-0.1289,-0.1298,-0.1303,-0.1339,-0.1402,-0.1479,-0.1578,-0.1625,-0.1739,-0.1837,-0.189,-0.1959,-0.1887,-0.1734,-0.1576,-0.1511,-0.1437,-0.1575,-0.1445,-0.1452,-0.1465,-0.14,-0.1372,-0.1298,-0.1302,-0.1305,-0.1308,-0.1311,0,-0.1246,-0.1279,-0.1328,-0.1416,-0.1496,-0.1542,-0.1657,-0.1642,-0.174,-0.175,-0.178,-0.1459,-0.1309,-0.1216,-0.1005,-0.1004,-0.0932,-0.098,-0.0814,-0.085,-0.0883,-0.0785,-0.0522,-0.0521,-0.052,-0.052,0,0,-0.122,-0.1241,-0.127,-0.1397,-0.1477,-0.1539,-0.1581,-0.1525,-0.1482,-0.1404,-0.1307,-0.1279,-0.1162,-0.0849,-0.0745,-0.0614,-0.0754,-0.0581,-0.1186,-0.1024,-0.1058,-0.1093,-0.0978,0,0,0,0,0]},{"header":{"parameterUnit":"m.s-1","parameterCategory":2,"la1":30.2991,"la2":30.254,"lo1":-89.0895,"lo2":-89.0444,"dy":0.0017,"dx":0.0017,"nx":28,"ny":28,"refTime":"2024-12-17T09:00:00:Z","depth":"2","parameterNumber":3,"parameterNumberName":"V-component_of_CURRENTS"},"data":[0,0,0,0,0,0,0,0,0,0,0,0,0,0,0,0,0,0,0,0,0,0,0,0,0,0,0,0,0,0,0,0,0,0,0,0,0,0,0,0,0,0,0,0,0,0,0,0,0,0,0,0,0,0,0,0,0,0,0.0347,0.0347,0,0.0375,0.0375,0.0376,0.0392,0.0391,0.0391,0.0391,0.0431,0.0433,0.0434,0,0,0,0,0,0,0,0,0,0,0,0,0,0.0353,0.0353,0.0347,0.0347,0.0347,0.0375,0.0375,0.0376,0.0392,0.0391,0.0391,0.0391,0.0431,0.0433,0.0434,0,0,0,0,0,0,0,0,0,0,0,0,0,0.0366,0.0353,0.0347,0.0356,0.0356,0.0375,0.0375,0.0376,0.0392,0.0391,0.0391,0.0391,0.0431,0.0432,0.0434,0.0454,0,0,0.044,0.0441,0,0,0,0,0,0,0,0,0.0365,0.0366,0.0354,0.0355,0.0356,0.0376,0.0392,0.0402,0.0392,0.0382,0.0391,0.039,0.0412,0.0416,0.0426,0.0456,0.0458,0.0441,0.0442,0.0443,0.0443,0,0,0,0,0,0,0,0.0364,0.0365,0.0361,0.0354,0.0355,0.0374,0.0375,0.0395,0.0402,0.0383,0.0383,0.0381,0.0413,0.0424,0.0427,0.0458,0.0441,0.0442,0.0444,0.0444,0.0488,0.0488,0,0,0,0,0,0,0.0352,0.0364,0.036,0.0362,0.0356,0.0373,0.0375,0.0373,0.0401,0.0404,0.0381,0.0382,0.0421,0.0425,0.0429,0.0421,0.0443,0.0444,0.0446,0.0488,0.0488,0.0488,0,0,0,0,0,0,0.0352,0.0351,0.0359,0.0361,0.0363,0.0373,0.0371,0.0374,0.0364,0.0399,0.0403,0.0366,0.0421,0.0426,0.0439,0.0424,0.0445,0.0447,0.0488,0.0488,0.0488,0.0426,0,0,0,0,0,0,0.0352,0.0351,0.0339,0.036,0.0362,0.0351,0.0371,0.0374,0.0363,0.0364,0.0388,0.0393,0.0421,0.0436,0.0441,0.0427,0.0449,0.0488,0.0488,0.0488,0.0428,0.0424,0.0421,0,0,0,0,0,0.0352,0.0334,0.0338,0.0337,0.0347,0.0349,0.0352,0.0361,0.0363,0.0353,0.0379,0.0391,0.0439,0.0437,0.0443,0.043,0.0488,0.0488,0.0488,0.043,0.0425,0.0421,0,0,0,0,0,0,0.033,0.0335,0.0339,0.0324,0.0327,0.035,0.0336,0.0346,0.0359,0.0354,0.0392,0.0399,0.0405,0.0428,0.0425,0.0444,0.0465,0.0466,0.0419,0.0415,0.0411,0.0397,0.045,0,0,0,0,0,0.032,0.0305,0.0318,0.0302,0.0298,0.0314,0.0313,0.0318,0.0334,0.0338,0.0358,0.0384,0.0413,0.042,0.0446,0.0453,0.0484,0.045,0.0446,0.0442,0.0436,0.0476,0.0474,0.0487,0.0487,0.0487,0,0,0.0304,0.0305,0.0296,0.0295,0.0297,0.0283,0.0312,0.0297,0.0292,0.0341,0.0334,0.0368,0.0413,0.0426,0.043,0.0439,0.0455,0.0442,0.0438,0.0434,0.0475,0.0474,0.0473,0.0487,0.0487,0.0487,0,0,0.0266,0.0267,0.024,0.0238,0.0231,0.0245,0.0233,0.0244,0.0252,0.0257,0.0296,0.0324,0.0351,0.039,0.0414,0.0404,0.0434,0.0404,0.037,0.0408,0.0407,0.0407,0.0443,0.0446,0.0401,0.0401,0.04,0,0.0245,0.0217,0.0233,0.0207,0.0194,0.022,0.0188,0.0207,0.0223,0.0235,0.0241,0.0307,0.0339,0.0378,0.0374,0.0394,0.0417,0.0381,0.0402,0.0402,0.0403,0.044,0.0444,0.0398,0.0398,0.0398,0.0399,0,0.0193,0.0164,0.0145,0.0124,0.0117,0.009,0.0113,0.0114,0.0128,0.0158,0.0188,0.0246,0.0285,0.0302,0.0333,0.0356,0.0371,0.0392,0.0409,0.0397,0.0438,0.0443,0.0393,0.0394,0.0395,0.0396,0,0,0.0154,0.0115,0.0104,0.0072,0.0065,0.005,0.0048,0.006,0.0064,0.0098,0.0114,0.0174,0.021,0.024,0.0288,0.0323,0.0349,0.0347,0.0351,0.0375,0.0427,0.0481,0.0493,0.0367,0.0367,0.0368,0.0453,0,0.01,0.0032,0.0034,-0.0034,-0.0073,-0.0049,-0.0051,-0.0031,0.0006,0.0035,0.0112,0.0144,0.0187,0.0203,0.0246,0.0328,0.0361,0.0324,0.0442,0.0446,0.0489,0.05,0.0431,0.0505,0.0459,0.046,0.0461,0,0.0044,0.0001,-0.0072,-0.0122,-0.0135,-0.0158,-0.0159,-0.0156,-0.0086,-0.0056,0.0002,0.0067,0.0136,0.0167,0.0292,0.0262,0.033,0.0394,0.0399,0.0473,0.051,0.0511,0.0517,0.0471,0.047,0.0469,0.0469,0,-0.0001,-0.0075,-0.0139,-0.0159,-0.0198,-0.0219,-0.0228,-0.0184,-0.0177,-0.0109,-0.009,0.0009,0.0054,0.0154,0.0281,0.0282,0.0417,0.0442,0.0557,0.0562,0.054,0.0542,0.0518,0.0518,0.0518,0.0518,0.0518,0,-0.0055,-0.0114,-0.017,-0.0208,-0.0283,-0.028,-0.0319,-0.03,-0.0258,-0.0246,-0.0144,-0.0104,0.0048,0.0151,0.0264,0.043,0.0406,0.0556,0.059,0.0519,0.0518,0.0517,0.0516,0.0521,0.052,0.052,0.0519,0,-0.0093,-0.0129,-0.0217,-0.0282,-0.0308,-0.0361,-0.0399,-0.0411,-0.0361,-0.0339,-0.0324,-0.019,-0.0061,0.0097,0.027,0.0411,0.056,0.0617,0.0525,0.0549,0.0685,0.0679,0.0772,0.0775,0.0777,0.0779,0.078,0,-0.0122,-0.0166,-0.0274,-0.0341,-0.0379,-0.0449,-0.0491,-0.0471,-0.0471,-0.0386,-0.0374,-0.0246,-0.013,0.0159,0.0402,0.0627,0.0581,0.0688,0.0694,0.0688,0.0712,0.0703,0.0695,0.0636,0.0636,0.0636,0.0637,0,-0.0176,-0.0208,-0.0277,-0.0417,-0.0497,-0.0573,-0.062,-0.0627,-0.0584,-0.0539,-0.0454,-0.0349,-0.0049,0.0198,0.0502,0.0619,0.0654,0.0705,0.0713,0.0592,0.057,0.059,0.0584,0.0639,0.0638,0.0638,0.0638,0.0638,-0.022,-0.028,-0.0377,-0.0515,-0.061,-0.0691,-0.0737,-0.0733,-0.0722,-0.061,-0.0501,-0.029,-0.0061,0.041,0.0549,0.0707,0.0769,0.0775,0.077,0.0765,0.0744,0.0728,0.0822,0.0823,0.0823,0.0824,0.0824,0,-0.028,-0.0357,-0.0478,-0.0638,-0.0757,-0.0785,-0.0828,-0.0817,-0.0793,-0.0606,-0.0474,-0.0193,0.0094,0.03,0.0604,0.0793,0.0746,0.0728,0.0618,0.0618,0.0618,0.0583,0.0621,0.0621,0.062,0.062,0,0,-0.0322,-0.0439,-0.0508,-0.0746,-0.0858,-0.0975,-0.0997,-0.0917,-0.0777,-0.058,-0.0378,-0.0095,0.0175,0.0309,0.0455,0.055,0.0532,0.0532,0.0687,0.0539,0.0535,0.0648,0.0598,0,0,0,0,0]}],[{"header":{"parameterUnit":"m.s-1","parameterCategory":2,"la1":30.2991,"la2":30.254,"lo1":-89.0895,"lo2":-89.0444,"dy":0.0017,"dx":0.0017,"nx":28,"ny":28,"refTime":"2024-12-17T09:00:00:Z","depth":"4","parameterNumber":2,"parameterNumberName":"U-component_of_CURRENTS"},"data":[0,0,0,0,0,0,0,0,0,0,0,0,0,0,0,0,0,0,0,0,0,0,0,0,0,0,0,0,0,0,0,0,0,0,0,0,0,0,0,0,0,0,0,0,0,0,0,0,0,0,0,0,0,0,0,0,0,0,-0.0775,-0.0775,0,-0.0818,-0.0819,-0.0819,-0.084,-0.084,-0.084,-0.084,-0.0884,-0.0885,-0.0886,0,0,0,0,0,0,0,0,0,0,0,0,0,-0.0761,-0.0761,-0.0775,-0.0775,-0.0776,-0.0818,-0.0819,-0.082,-0.084,-0.084,-0.084,-0.084,-0.0884,-0.0885,-0.0886,0,0,0,0,0,0,0,0,0,0,0,0,0,-0.0782,-0.0761,-0.0775,-0.0791,-0.0793,-0.0818,-0.0819,-0.082,-0.084,-0.084,-0.084,-0.084,-0.0883,-0.0885,-0.0887,-0.0899,0,0,-0.0892,-0.0893,0,0,0,0,0,0,0,0,-0.078,-0.0782,-0.0788,-0.079,-0.0792,-0.0824,-0.083,-0.0846,-0.084,-0.0822,-0.084,-0.084,-0.0864,-0.0867,-0.0876,-0.0901,-0.0903,-0.0892,-0.0893,-0.0894,-0.0895,0,0,0,0,0,0,0,-0.0779,-0.0781,-0.0792,-0.0789,-0.0791,-0.0814,-0.0816,-0.0834,-0.0843,-0.0824,-0.0825,-0.083,-0.0865,-0.0874,-0.0877,-0.0904,-0.0892,-0.0894,-0.0895,-0.0896,-0.097,-0.097,0,0,0,0,0,0,-0.0771,-0.0779,-0.0791,-0.0793,-0.0786,-0.0814,-0.0817,-0.0814,-0.0843,-0.0847,-0.083,-0.0831,-0.0871,-0.0875,-0.0878,-0.0931,-0.0894,-0.0896,-0.0897,-0.0969,-0.097,-0.0971,0,0,0,0,0,0,-0.077,-0.0771,-0.0789,-0.0788,-0.0792,-0.0814,-0.0811,-0.0815,-0.0833,-0.0848,-0.0852,-0.0845,-0.0871,-0.0876,-0.0906,-0.0931,-0.0897,-0.0898,-0.0968,-0.0969,-0.097,-0.1012,0,0,0,0,0,0,-0.0769,-0.077,-0.0769,-0.0787,-0.0791,-0.0808,-0.0811,-0.0815,-0.0835,-0.0837,-0.0862,-0.0865,-0.0871,-0.0904,-0.0908,-0.0933,-0.09,-0.0967,-0.0968,-0.097,-0.101,-0.1015,-0.1019,0,0,0,0,0,-0.0769,-0.0763,-0.0769,-0.077,-0.0787,-0.0808,-0.0813,-0.0829,-0.0836,-0.0845,-0.0867,-0.0865,-0.0917,-0.0906,-0.0911,-0.0937,-0.0966,-0.0968,-0.097,-0.1008,-0.1014,-0.1019,0,0,0,0,0,0,-0.0755,-0.0765,-0.0772,-0.0769,-0.079,-0.0811,-0.0819,-0.0835,-0.086,-0.0863,-0.0879,-0.0884,-0.0919,-0.0921,-0.0908,-0.0962,-0.094,-0.0944,-0.0968,-0.0973,-0.0978,-0.0974,-0.0901,0,0,0,0,0,-0.0752,-0.0748,-0.0769,-0.0768,-0.0777,-0.0802,-0.0814,-0.0828,-0.0851,-0.0862,-0.0884,-0.0906,-0.093,-0.0945,-0.0962,-0.0994,-0.0986,-0.1012,-0.1017,-0.1021,-0.1021,-0.1034,-0.1039,-0.0977,-0.0977,-0.0977,0,0,-0.0747,-0.0751,-0.075,-0.0765,-0.0781,-0.08,-0.0809,-0.0829,-0.0853,-0.0863,-0.0903,-0.0923,-0.0941,-0.0977,-0.0993,-0.0984,-0.1035,-0.1024,-0.1027,-0.1025,-0.1036,-0.1042,-0.1048,-0.0979,-0.0978,-0.0978,0,0,-0.0732,-0.0739,-0.0733,-0.0754,-0.0779,-0.08,-0.0809,-0.0842,-0.0864,-0.0904,-0.092,-0.0953,-0.0991,-0.1012,-0.1026,-0.1066,-0.1057,-0.1074,-0.1101,-0.1114,-0.1119,-0.1123,-0.112,-0.1124,-0.108,-0.108,-0.108,0,-0.0726,-0.0723,-0.0738,-0.0747,-0.0768,-0.0802,-0.0818,-0.0847,-0.0891,-0.0914,-0.0919,-0.099,-0.1006,-0.1055,-0.1073,-0.1077,-0.1077,-0.108,-0.112,-0.1124,-0.1128,-0.1123,-0.1127,-0.1082,-0.1082,-0.1082,-0.1082,0,-0.0711,-0.072,-0.0721,-0.0744,-0.0771,-0.079,-0.0836,-0.0867,-0.0903,-0.0937,-0.0995,-0.1027,-0.1067,-0.1084,-0.1095,-0.1139,-0.1128,-0.1122,-0.1105,-0.1137,-0.113,-0.1133,-0.1086,-0.1085,-0.1084,-0.1083,0,0,-0.0669,-0.0703,-0.0704,-0.0723,-0.0775,-0.0795,-0.0841,-0.0892,-0.0924,-0.098,-0.1023,-0.1083,-0.1109,-0.1126,-0.1149,-0.117,-0.1201,-0.1165,-0.1164,-0.116,-0.1222,-0.111,-0.1103,-0.1207,-0.1208,-0.1209,-0.1206,0,-0.0655,-0.0662,-0.0694,-0.0728,-0.0742,-0.0801,-0.0842,-0.0897,-0.0948,-0.0998,-0.1051,-0.1099,-0.1124,-0.1149,-0.1178,-0.1197,-0.1211,-0.1201,-0.1193,-0.1192,-0.1088,-0.1103,-0.1211,-0.1208,-0.1209,-0.1209,-0.1209,0,-0.0626,-0.0639,-0.0653,-0.072,-0.0734,-0.077,-0.0843,-0.0889,-0.0968,-0.1004,-0.1069,-0.111,-0.1172,-0.1172,-0.1228,-0.1224,-0.1227,-0.1233,-0.1233,-0.1114,-0.1086,-0.117,-0.1215,-0.1214,-0.1214,-0.1213,-0.1213,0,-0.0568,-0.0617,-0.0626,-0.0647,-0.072,-0.0753,-0.081,-0.089,-0.0925,-0.1013,-0.1039,-0.1123,-0.1157,-0.1192,-0.1223,-0.123,-0.1256,-0.1261,-0.116,-0.1152,-0.1237,-0.1232,-0.1279,-0.1279,-0.1279,-0.1279,-0.1279,0,-0.0531,-0.0547,-0.0603,-0.0607,-0.064,-0.0722,-0.077,-0.083,-0.091,-0.0949,-0.1044,-0.1068,-0.1164,-0.1195,-0.122,-0.1193,-0.1254,-0.1159,-0.1143,-0.1254,-0.1251,-0.1238,-0.1234,-0.1279,-0.1279,-0.1279,-0.1279,0,-0.0464,-0.0494,-0.0505,-0.0575,-0.0603,-0.0629,-0.0731,-0.077,-0.0856,-0.0903,-0.093,-0.1028,-0.1063,-0.1129,-0.1173,-0.1164,-0.1162,-0.1131,-0.1235,-0.1226,-0.1052,-0.105,-0.1022,-0.1018,-0.1015,-0.1012,-0.101,0,-0.0433,-0.0423,-0.0457,-0.0461,-0.0497,-0.0556,-0.06,-0.0714,-0.0756,-0.0863,-0.0872,-0.0934,-0.0988,-0.0969,-0.104,-0.1061,-0.1053,-0.1056,-0.1067,-0.1038,-0.1026,-0.1029,-0.1031,-0.1004,-0.1003,-0.1003,-0.1002,0,-0.0375,-0.0372,-0.0377,-0.0372,-0.0408,-0.045,-0.0529,-0.0552,-0.0683,-0.0752,-0.0791,-0.0827,-0.0849,-0.0894,-0.0907,-0.0928,-0.1064,-0.1021,-0.1028,-0.1038,-0.1016,-0.1008,-0.1014,-0.099,-0.0992,-0.0993,-0.0993,0,-0.0331,-0.0307,-0.0295,-0.0297,-0.0323,-0.0355,-0.0411,-0.0481,-0.0536,-0.0674,-0.067,-0.0751,-0.0821,-0.0819,-0.0836,-0.0841,-0.0838,-0.0842,-0.0859,-0.0873,-0.0826,-0.0776,-0.0656,0,0,0,0,0,-0.0292,-0.0258,-0.0237,-0.0216,-0.0235,-0.0259,-0.0368,-0.0437,-0.0558,-0.0558,-0.062,-0.0639,-0.0673,-0.0709,-0.0684,-0.0762,-0.0838,-0.0731,-0.085,-0.0925,-0.0938,-0.0899,0,0,0,0,0,0,-0.0262,-0.0234,-0.021,-0.0158,-0.0133,-0.0161,-0.0239,-0.0326,-0.0344,-0.0461,-0.0478,-0.0557,-0.0591,-0.0639,-0.0642,-0.0655,-0.0715,-0.0774,-0.0773,-0.0917,-0.0929,-0.094,-0.0904,0,0,0,0,0]},{"header":{"parameterUnit":"m.s-1","parameterCategory":2,"la1":30.2991,"la2":30.254,"lo1":-89.0895,"lo2":-89.0444,"dy":0.0017,"dx":0.0017,"nx":28,"ny":28,"refTime":"2024-12-17T09:00:00:Z","depth":"4","parameterNumber":3,"parameterNumberName":"V-component_of_CURRENTS"},"data":[0,0,0,0,0,0,0,0,0,0,0,0,0,0,0,0,0,0,0,0,0,0,0,0,0,0,0,0,0,0,0,0,0,0,0,0,0,0,0,0,0,0,0,0,0,0,0,0,0,0,0,0,0,0,0,0,0,0,-0.0072,-0.0073,0,-0.0088,-0.0088,-0.0088,-0.0059,-0.0058,-0.0058,-0.0057,-0.0009,-0.0009,-0.0008,0,0,0,0,0,0,0,0,0,0,0,0,0,0.0016,0.0014,-0.0072,-0.0073,-0.0073,-0.0088,-0.0088,-0.0088,-0.0059,-0.0058,-0.0057,-0.0056,-0.0009,-0.0009,-0.0008,0,0,0,0,0,0,0,0,0,0,0,0,0,-0.0011,0.0014,-0.0072,-0.0062,-0.0061,-0.0088,-0.0088,-0.0088,-0.0059,-0.0058,-0.0057,-0.0056,-0.001,-0.0009,-0.0008,-0.0026,0,0,-0.0005,-0.0005,0,0,0,0,0,0,0,0,-0.001,-0.0014,-0.0063,-0.0063,-0.0062,-0.0073,-0.004,-0.0065,-0.006,-0.0058,-0.0057,-0.0055,-0.0027,-0.0024,-0.0028,-0.0024,-0.0022,-0.0005,-0.0005,-0.0005,-0.0004,0,0,0,0,0,0,0,-0.0008,-0.0013,-0.0076,-0.0064,-0.0063,-0.0046,-0.0048,-0.0045,-0.0046,-0.0058,-0.0056,-0.0062,-0.0026,-0.0029,-0.0026,-0.0021,-0.0005,-0.0005,-0.0004,-0.0004,-0.0015,-0.0016,0,0,0,0,0,0,-0.0014,-0.0012,-0.0076,-0.0077,-0.0035,-0.0049,-0.0051,-0.0069,-0.0047,-0.0044,-0.0063,-0.0061,-0.0031,-0.0027,-0.0024,-0.0038,-0.0005,-0.0004,-0.0003,-0.0014,-0.0015,-0.0016,0,0,0,0,0,0,-0.0012,-0.002,-0.0075,-0.0045,-0.0052,-0.0052,-0.0071,-0.007,-0.0069,-0.0052,-0.0047,-0.0064,-0.003,-0.0026,-0.0026,-0.0036,-0.0003,-0.0003,-0.0014,-0.0015,-0.0016,-0.0069,0,0,0,0,0,0,-0.001,-0.002,-0.0032,-0.0047,-0.0054,-0.0099,-0.0072,-0.0071,-0.0076,-0.0073,-0.0052,-0.0046,-0.0028,-0.0027,-0.0025,-0.0034,-0.0002,-0.0013,-0.0014,-0.0015,-0.0066,-0.0071,-0.0076,0,0,0,0,0,-0.0007,-0.0035,-0.0033,-0.0041,-0.0072,-0.0101,-0.0103,-0.0096,-0.0077,-0.0089,-0.0071,-0.0047,-0.0034,-0.0028,-0.0025,-0.0034,-0.0012,-0.0014,-0.0015,-0.0064,-0.007,-0.0076,0,0,0,0,0,0,-0.0002,-0.0035,-0.0033,-0.0069,-0.0086,-0.0097,-0.0109,-0.0101,-0.0097,-0.0089,-0.0061,-0.0056,-0.006,-0.0043,-0.0036,-0.0041,-0.0018,-0.0019,-0.0055,-0.0061,-0.0066,-0.0067,-0.0001,0,0,0,0,0,-0.0009,-0.0038,-0.0061,-0.0088,-0.01,-0.0103,-0.0111,-0.0109,-0.011,-0.0106,-0.0092,-0.0075,-0.0068,-0.0061,-0.0055,-0.006,-0.0022,-0.0063,-0.0068,-0.0073,-0.0072,-0.003,-0.0031,-0.0022,-0.0022,-0.0022,0,0,-0.0013,-0.0036,-0.0051,-0.0089,-0.01,-0.0129,-0.0105,-0.0126,-0.0143,-0.0102,-0.0116,-0.0097,-0.0075,-0.0082,-0.0081,-0.0066,-0.0054,-0.0075,-0.0079,-0.0075,-0.0032,-0.0033,-0.0033,-0.0023,-0.0023,-0.0023,0,0,-0.0043,-0.006,-0.0095,-0.0116,-0.0143,-0.0147,-0.0155,-0.017,-0.0168,-0.0184,-0.0154,-0.0142,-0.0137,-0.012,-0.011,-0.0141,-0.0086,-0.0137,-0.016,-0.012,-0.012,-0.0119,-0.0064,-0.0058,-0.0135,-0.0136,-0.0136,0,-0.0044,-0.0096,-0.0107,-0.0148,-0.0169,-0.0159,-0.0196,-0.0201,-0.021,-0.0211,-0.0195,-0.0177,-0.0156,-0.0152,-0.0158,-0.0152,-0.0112,-0.0138,-0.0126,-0.0124,-0.0123,-0.0066,-0.0059,-0.0138,-0.0138,-0.0138,-0.0137,0,-0.0102,-0.0142,-0.0166,-0.0213,-0.0234,-0.0267,-0.0278,-0.0288,-0.0279,-0.0276,-0.0275,-0.0244,-0.0228,-0.0219,-0.0196,-0.018,-0.0148,-0.0139,-0.0108,-0.0127,-0.0066,-0.0057,-0.0142,-0.0141,-0.014,-0.014,0,0,-0.0103,-0.019,-0.0196,-0.0232,-0.0273,-0.0297,-0.0325,-0.0348,-0.036,-0.0349,-0.0357,-0.0332,-0.03,-0.0286,-0.0251,-0.021,-0.0161,-0.0169,-0.0166,-0.011,-0.0054,-0.0032,-0.002,-0.0145,-0.0144,-0.0144,-0.0011,0,-0.0141,-0.023,-0.0259,-0.0329,-0.0374,-0.038,-0.0407,-0.042,-0.0419,-0.0423,-0.038,-0.0376,-0.0331,-0.0317,-0.0271,-0.0193,-0.0142,-0.0196,-0.0046,-0.0042,-0.0017,-0.0011,-0.0141,-0.0005,-0.0003,-0.0001,-0.0,0,-0.0181,-0.0241,-0.0323,-0.0395,-0.0412,-0.0446,-0.048,-0.0503,-0.0501,-0.0496,-0.0474,-0.0443,-0.0387,-0.0348,-0.0211,-0.0245,-0.0152,-0.0084,-0.0077,-0.0033,-0.0005,0.0017,0.0016,0.0014,0.0013,0.0012,0.0011,0,-0.0178,-0.0277,-0.0344,-0.0373,-0.045,-0.0479,-0.0507,-0.0524,-0.0539,-0.0539,-0.0537,-0.0478,-0.0438,-0.0328,-0.0188,-0.0195,-0.0026,-0.0021,0.0089,0.0093,0.0058,0.0056,0.0081,0.008,0.008,0.008,0.0079,0,-0.0206,-0.0257,-0.0352,-0.0391,-0.0459,-0.05,-0.0549,-0.0567,-0.0581,-0.0586,-0.0567,-0.0541,-0.0429,-0.0326,-0.0197,-0.0021,-0.0028,0.0094,0.0127,0.0033,0.0027,0.0065,0.0061,0.0085,0.0084,0.0083,0.0082,0,-0.0192,-0.0257,-0.0337,-0.0433,-0.0465,-0.0508,-0.0578,-0.0604,-0.0616,-0.062,-0.0619,-0.0572,-0.0441,-0.0314,-0.0129,-0.0029,0.0128,0.0194,0.0098,0.0122,0.0226,0.0218,0.0327,0.0329,0.033,0.0331,0.0333,0,-0.02,-0.0244,-0.0356,-0.0409,-0.0459,-0.053,-0.0573,-0.0612,-0.063,-0.062,-0.061,-0.0524,-0.0467,-0.0188,-0.0064,0.0167,0.0199,0.028,0.0241,0.0229,0.0251,0.024,0.023,0.0335,0.0335,0.0336,0.0336,0,-0.021,-0.0242,-0.0306,-0.041,-0.0479,-0.0548,-0.0608,-0.0617,-0.0637,-0.065,-0.0573,-0.0466,-0.0324,-0.0159,0.0011,0.0177,0.0219,0.0297,0.0294,0.0258,0.0241,0.0258,0.0246,0.0342,0.0341,0.034,0.034,0,-0.0205,-0.0241,-0.032,-0.0403,-0.0496,-0.0552,-0.0582,-0.0591,-0.0602,-0.0583,-0.0546,-0.0423,-0.036,-0.0149,0.0016,0.0164,0.0199,0.0249,0.025,0.0246,0.0169,0.0132,0.0236,0,0,0,0,0,-0.02,-0.0234,-0.0315,-0.0403,-0.0488,-0.0536,-0.0603,-0.062,-0.063,-0.0563,-0.0552,-0.0415,-0.0199,-0.0124,0.0033,0.0036,0.0213,0.0225,0.0269,0.0372,0.0365,0.029,0,0,0,0,0,0,-0.0206,-0.0263,-0.03,-0.0385,-0.0439,-0.052,-0.0563,-0.0568,-0.0529,-0.0521,-0.0409,-0.0359,-0.0157,-0.0273,0.0046,0.0084,0.0137,0.0316,0.032,0.0375,0.0369,0.0364,0.0285,0,0,0,0,0]}]]